Location: Bremen
(53.0793°N, 8.8017°E)
Time: 20:34:07
(UTC+01:00)

Tiros 1 - Pass Details

Date: 11 December 2021
Orbit: 629 x 664 km, 48.4° (Epoch: 18 January)

Event Time Altitude Azimuth Distance (km) Brightness Sun altitude
Rises 19:23:47 0° 264° (W) 2,923 11.8 -28.0°
Reaches altitude 10° 19:26:09 10° 259° (W) 2,019 10.6 -28.3°
Enters shadow 19:29:33 39° 224° (SW) 955 8.2 -28.8°
